Tracking 29892 objects as of 21-Nov-2024
HD Live streaming from Space Station
objects crossing your sky now

COSMOS 1275 DEB

Track COSMOS 1275 DEB now!
10-day predictions


NORAD ID: 42140
Int'l Code: 1981-053RC
Perigee: 932.0 km
Apogee: 1,233.9 km
Inclination: 83.1 °
Period: 106.7 minutes
Semi major axis: 7453 km
RCS: Unknown
Launch date: June 4, 1981
Source: Commonwealth of Independent States (former USSR) (CIS)
Launch site: PLESETSK MISSILE AND SPACE COMPLEX (PKMTR)

Note: This is SATELLITE DEBRIS
Your satellite tracking list
Your tracking list is empty




NASA's NSSDC Master Catalog

Two Line Element Set (TLE):
1 42140U 81053RC  24314.34267700  .00001080  00000-0  15029-2 0  9999
2 42140  83.1380 167.2142 0202508 324.0198  34.7448 13.49043307506637
Source of the keplerian elements: AFSPC